Indianapolis, IN

5:46 AM EST on December 06, 2019 (GMT -0500)
Indianapolis International

Weather History for KIND - November, 2019

Change the Weather History Date:

Sunday, November 17, 2019

  Actual Average Record
Temperature  
Mean Temperature 36 °F 43 °F  
Max Temperature 45 °F 52 °F 77 °F (1958)
Min Temperature 26 °F 35 °F 4 °F (1959)
Degree Days  
Heating Degree Days 30 22  
Month to date heating degree days 496 313  
Since 1 July heating degree days 791 714  
Cooling Degree Days 0 0  
Month to date cooling degree days 0 0  
Year to date cooling degree days 1344 1065  
Moisture  
Dew Point 27 °F    
Average Humidity 74    
Maximum Humidity 92    
Minimum Humidity 53    
Precipitation  
Precipitation 0.00 in 0.13 in 2.48 in (2013)
Month to date precipitation 0.33 2.05  
Year to date precipitation 41.83 37.62  
Snow  
Snow 0.00 in 0.00 in 2.10 in (1980)
Month to date snowfall 2.8 0.2  
Since 1 July snowfall 2.8 0.6  
Since 1 September snowfall 2.8 0.6  
Snow Depth 0.00 in    
Sea Level Pressure  
Sea Level Pressure 30.04 in    
Wind  
Wind Speed 4 mph ()    
Max Wind Speed 8 mph    
Max Gust Speed 11 mph    
Visibility 9.6 miles    
Events      
T = Trace of Precipitation, MM = Missing Value Source: Averaged Metar Reports

Daily Weather History Graph

Daily Weather History Graph

Search for Another Location

Airport or City:

Astronomy

Nov. 17, 2019 Rise Set
Actual Time 7:31 AM EST 5:28 PM EST
Civil Twilight 7:02 AM EST 5:57 PM EST
Nautical Twilight 6:29 AM EST 6:29 PM EST
Astronomical Twilight 5:57 AM EST 7:01 PM EST
Moon 10:04 PM EST (11/17) 12:16 PM EST (11/17)
Length of Visible Light 10h 54m
Length of Day
9h 56m
Waning Gibbous, 73% of the Moon is Illuminated
Nov 17
Waning Gibbous
Nov 19
Last Quarter
Nov 26
New
Dec 4
First Quarter
Dec 12
Full

Hourly Weather History & Observations

Time (EST) Temp. Windchill Dew Point Humidity Pressure Visibility Wind Dir Wind Speed Gust Speed Precip Events Conditions
12:54 AM 30.9 °F 26.2 °F 26.1 °F 82% 30.20 in 10.0 mi ENE 4.6 mph - N/A   Clear
1:54 AM 28.0 °F 21.7 °F 25.0 °F 88% 30.19 in 10.0 mi ENE 5.8 mph - N/A   Clear
2:54 AM 28.0 °F 21.7 °F 25.0 °F 88% 30.19 in 10.0 mi NE 5.8 mph - N/A   Clear
3:54 AM 26.1 °F 21.9 °F 24.1 °F 92% 30.17 in 9.0 mi North 3.5 mph - N/A   Clear
4:54 AM 27.0 °F 20.5 °F 24.1 °F 89% 30.16 in 8.0 mi NE 5.8 mph - N/A   Clear
5:54 AM 27.0 °F - 24.1 °F 89% 30.15 in 8.0 mi Calm Calm - N/A   Clear
6:54 AM 26.1 °F 19.4 °F 23.0 °F 88% 30.13 in 9.0 mi ENE 5.8 mph - N/A   Clear
7:54 AM 27.0 °F 23.0 °F 24.1 °F 89% 30.13 in 8.0 mi East 3.5 mph - N/A   Scattered Clouds
8:54 AM 30.0 °F 25.2 °F 25.0 °F 82% 30.12 in 10.0 mi East 4.6 mph - N/A   Scattered Clouds
9:54 AM 33.1 °F 28.7 °F 27.0 °F 78% 30.11 in 10.0 mi SE 4.6 mph - N/A   Scattered Clouds
10:54 AM 37.0 °F 33.3 °F 28.9 °F 73% 30.10 in 10.0 mi Variable 4.6 mph - N/A   Mostly Cloudy
11:54 AM 41.0 °F - 28.9 °F 62% 30.07 in 10.0 mi Calm Calm - N/A   Mostly Cloudy
12:54 PM 42.1 °F 39.2 °F 28.0 °F 58% 30.01 in 10.0 mi SE 4.6 mph - N/A   Overcast
1:54 PM 44.1 °F 41.5 °F 28.9 °F 55% 29.98 in 10.0 mi East 4.6 mph - N/A   Overcast
2:54 PM 44.1 °F - 28.9 °F 55% 29.97 in 10.0 mi Calm Calm - N/A   Overcast
3:54 PM 44.1 °F - 28.9 °F 55% 29.96 in 10.0 mi Calm Calm - N/A   Overcast
4:54 PM 43.0 °F 39.5 °F 30.0 °F 60% 29.94 in 10.0 mi SE 5.8 mph - N/A   Overcast
5:54 PM 42.1 °F 39.2 °F 28.9 °F 60% 29.92 in 10.0 mi ESE 4.6 mph - N/A   Overcast
6:54 PM 42.1 °F 40.2 °F 28.9 °F 60% 29.93 in 9.0 mi ESE 3.5 mph - N/A   Overcast
7:54 PM 39.9 °F 37.8 °F 28.9 °F 65% 29.92 in 10.0 mi ESE 3.5 mph - N/A   Overcast
8:54 PM 37.9 °F 33.5 °F 28.9 °F 70% 29.91 in 10.0 mi ESE 5.8 mph - N/A   Scattered Clouds
9:54 PM 36.0 °F 30.3 °F 28.9 °F 76% 29.89 in 10.0 mi SSE 6.9 mph - N/A   Overcast
10:54 PM 36.0 °F 31.1 °F 28.9 °F 76% 29.88 in 10.0 mi SSW 5.8 mph - N/A   Overcast
11:54 PM 36.0 °F 32.1 °F 28.9 °F 76% 29.87 in 10.0 mi SSW 4.6 mph - N/A   Overcast